This is the latest recevied weather packets stored in our database for station/object YN1JLX-13. If no packets are shown the sender has not sent any weather packets the latest 10 day(s).
| Time | Temp. | Humidity | Pressure | Rain* | Wind** | Luminosity | Snow |
|---|---|---|---|---|---|---|---|
| 1777955079 | 21.67° C | 66% | 1012 hPa | 0 mm | - | - | - |
| 1777954479 | 20.56° C | 73% | 1012 hPa | 0 mm | - | - | - |
| 1777953879 | 21.67° C | 73% | 1012 hPa | 0 mm | - | - | - |
| 1777953278 | 21.11° C | 71% | 1012 hPa | 0 mm | - | - | - |
| 1777952678 | 21.67° C | 71% | 1012 hPa | 0 mm | - | - | - |
| 1777952078 | 21.11° C | 67% | 1012 hPa | 0 mm | - | - | - |
| 1777951477 | 21.67° C | 64% | 1011 hPa | 0 mm | - | - | - |
| 1777950877 | 20.56° C | 64% | 1011 hPa | 0 mm | - | - | - |
| 1777950277 | 21.11° C | 65% | 1011 hPa | 0 mm | - | - | - |
| 1777949676 | 22.22° C | 65% | 1011 hPa | 0 mm | - | - | - |
| 1777949076 | 21.11° C | 60% | 1011 hPa | 0 mm | - | - | - |
| 1777948476 | 21.67° C | 60% | 1011 hPa | 0 mm | - | - | - |
| 1777947876 | 21.67° C | 60% | 1010 hPa | 0 mm | - | - | - |
| 1777947275 | 22.78° C | 60% | 1010 hPa | 0 mm | - | - | - |
| 1777946675 | 23.89° C | 60% | 1010 hPa | 0 mm | - | - | - |
| 1777946075 | 22.78° C | 58% | 1010 hPa | 0 mm | - | - | - |
| 1777945475 | 23.89° C | 58% | 1010 hPa | 0 mm | - | - | - |
| 1777944874 | 22.78° C | 56% | 1010 hPa | 0 mm | - | - | - |
| 1777944275 | 23.89° C | 56% | 1009 hPa | 0 mm | - | - | - |
| 1777943674 | 23.33° C | 54% | 1009 hPa | 0 mm | - | - | - |
| 1777943074 | 24.44° C | 54% | 1009 hPa | 0 mm | - | - | - |
| 1777942473 | 25° C | 54% | 1009 hPa | 0 mm | - | - | - |
| 1777941873 | 24.44° C | 54% | 1009 hPa | 0 mm | - | - | - |
| 1777941273 | 25° C | 54% | 1009 hPa | 0 mm | - | - | - |
| 1777940672 | 25.56° C | 54% | 1008 hPa | 0 mm | - | - | - |
* Rain latest hour (hover to see other rain measurements)
** Current wind speed in m/s (hover to see current wind gust speed)